• In Germany
  • List of Countries
  • For 7 days
  • Water Temperature
  • Satellite Maps
  • Weather Map
  • Weather Widgets
  • user-avatar
    Login

    Hourly Weather Gamboma

    Today, 19 July, Thursday

    Time Temperature Precipitation Wind Pressure Humidity
    00:00 +29°C° 0.1 mm 2 mps 730 mmHg 55%
    01:00 +28°C° 0 mm 1 mps 730 mmHg 60%
    02:00 +28°C° 0.1 mm 1 mps 730 mmHg 63%
    03:00 +27°C° 0.1 mm 1 mps 730 mmHg 67%
    04:00 +27°C° 0.1 mm 1 mps 730 mmHg 70%
    05:00 +27°C° 0.2 mm 1 mps 730 mmHg 70%
    06:00 +27°C° 0.2 mm 1 mps 730 mmHg 69%
    07:00 +27°C° 0 mm 2 mps 731 mmHg 66%
    08:00 +29°C° 0.1 mm 1 mps 731 mmHg 58%
    09:00 +31°C° 0.1 mm 1 mps 731 mmHg 49%
    10:00 +33°C° 0.1 mm 1 mps 731 mmHg 40%
    11:00 +35°C° 0 mm 1 mps 730 mmHg 36%
    12:00 +36°C° 0 mm 1 mps 729 mmHg 32%
    13:00 +38°C° 0 mm 2 mps 729 mmHg 28%
    14:00 +37°C° 0 mm 1 mps 728 mmHg 27%
    15:00 +37°C° 0 mm 1 mps 728 mmHg 27%
    16:00 +37°C° 0 mm 1 mps 727 mmHg 26%
    17:00 +35°C° 0 mm 1 mps 727 mmHg 30%
    18:00 +33°C° 0 mm 1 mps 727 mmHg 33%
    19:00 +32°C° 0 mm 1 mps 727 mmHg 37%
    20:00 +31°C° 0 mm 1 mps 727 mmHg 40%
    21:00 +30°C° 0 mm 1 mps 728 mmHg 44%
    22:00 +29°C° 0 mm 1 mps 728 mmHg 48%
    23:00 +29°C° 0 mm 1 mps 728 mmHg 51%

    Tomorrow, 20 July, Friday

    Time Temperature Precipitation Wind Pressure Humidity
    00:00 +28°C° 0 mm 1 mps 728 mmHg 54%
    01:00 +27°C° 0 mm 1 mps 729 mmHg 58%
    02:00 +27°C° 0 mm 2 mps 729 mmHg 59%
    03:00 +27°C° 0 mm 2 mps 729 mmHg 60%
    04:00 +27°C° 0 mm 2 mps 729 mmHg 61%
    05:00 +27°C° 0 mm 2 mps 729 mmHg 63%
    06:00 +27°C° 0 mm 2 mps 729 mmHg 64%
    07:00 +27°C° 0 mm 3 mps 729 mmHg 66%
    08:00 +29°C° 0 mm 3 mps 730 mmHg 60%
    09:00 +31°C° 0 mm 3 mps 730 mmHg 53%
    10:00 +33°C° 0 mm 3 mps 730 mmHg 47%
    11:00 +35°C° 0 mm 2 mps 729 mmHg 43%
    12:00 +36°C° 0 mm 2 mps 729 mmHg 38%
    13:00 +37°C° 0 mm 1 mps 728 mmHg 33%
    14:00 +36°C° 0 mm 1 mps 728 mmHg 33%
    15:00 +36°C° 0 mm 1 mps 727 mmHg 33%
    16:00 +36°C° 0 mm 1 mps 726 mmHg 33%
    17:00 +35°C° 0 mm 1 mps 726 mmHg 36%
    18:00 +33°C° 0 mm 1 mps 727 mmHg 40%
    19:00 +32°C° 0 mm 1 mps 727 mmHg 43%
    20:00 +31°C° 0 mm 2 mps 727 mmHg 46%
    21:00 +31°C° 0 mm 2 mps 728 mmHg 49%
    22:00 +30°C° 0 mm 2 mps 728 mmHg 51%
    23:00 +29°C° 0 mm 2 mps 728 mmHg 55%

    Day after tomorrow, 21 July, Saturday

    Time Temperature Precipitation Wind Pressure Humidity
    00:00 +29°C° 0 mm 2 mps 728 mmHg 58%
    01:00 +28°C° 0 mm 3 mps 728 mmHg 62%
    02:00 +28°C° 0 mm 3 mps 728 mmHg 65%
    03:00 +27°C° 0 mm 3 mps 728 mmHg 68%
    04:00 +27°C° 0 mm 3 mps 728 mmHg 70%
    05:00 +27°C° 0 mm 3 mps 728 mmHg 71%
    06:00 +27°C° 0 mm 3 mps 729 mmHg 72%
    07:00 +27°C° 0 mm 3 mps 729 mmHg 73%
    08:00 +28°C° 0 mm 3 mps 729 mmHg 65%
    09:00 +30°C° 0 mm 3 mps 730 mmHg 58%
    10:00 +33°C° 0 mm 3 mps 730 mmHg 50%
    11:00 +35°C° 0 mm 2 mps 730 mmHg 44%
    12:00 +37°C° 0 mm 2 mps 729 mmHg 37%
    13:00 +39°C° 0 mm 1 mps 728 mmHg 31%
    14:00 +39°C° 0 mm 1 mps 728 mmHg 31%
    15:00 +37°C° 0 mm 1 mps 727 mmHg 32%
    16:00 +36°C° 0 mm 1 mps 727 mmHg 32%
    17:00 +35°C° 0 mm 1 mps 727 mmHg 35%
    18:00 +34°C° 0 mm 1 mps 727 mmHg 38%
    19:00 +33°C° 0 mm 1 mps 728 mmHg 41%
    20:00 +32°C° 0 mm 1 mps 728 mmHg 44%
    21:00 +31°C° 0 mm 1 mps 729 mmHg 47%
    22:00 +31°C° 0 mm 1 mps 729 mmHg 50%
    23:00 +30°C° 0 mm 2 mps 729 mmHg 53%

    22 July, Sunday

    Time Temperature Precipitation Wind Pressure Humidity
    00:00 +30°C° 0 mm 2 mps 729 mmHg 56%
    01:00 +29°C° 0 mm 2 mps 729 mmHg 58%
    02:00 +28°C° 0.1 mm 2 mps 729 mmHg 61%
    03:00 +28°C° 0.1 mm 2 mps 728 mmHg 64%
    04:00 +27°C° 0.1 mm 2 mps 728 mmHg 66%
    05:00 +27°C° 0 mm 2 mps 729 mmHg 66%
    06:00 +27°C° 0 mm 2 mps 729 mmHg 66%
    07:00 +27°C° 0 mm 2 mps 730 mmHg 66%
    08:00 +29°C° 0 mm 3 mps 730 mmHg 60%
    09:00 +30°C° 0 mm 3 mps 731 mmHg 53%
    10:00 +33°C° 0 mm 3 mps 731 mmHg 47%
    11:00 +35°C° 0 mm 2 mps 730 mmHg 43%
    12:00 +36°C° 0 mm 2 mps 730 mmHg 39%
    13:00 +38°C° 0 mm 2 mps 729 mmHg 35%
    14:00 +37°C° 0 mm 2 mps 728 mmHg 36%
    15:00 +35°C° 0 mm 1 mps 728 mmHg 37%
    16:00 +35°C° 0 mm 1 mps 727 mmHg 39%
    17:00 +34°C° 0 mm 1 mps 727 mmHg 41%
    18:00 +33°C° 0 mm 1 mps 728 mmHg 44%
    19:00 +32°C° 0 mm 1 mps 728 mmHg 47%
    20:00 +31°C° 0 mm 2 mps 729 mmHg 50%
    21:00 +31°C° 0 mm 2 mps 729 mmHg 53%
    22:00 +30°C° 0 mm 2 mps 730 mmHg 56%
    23:00 +29°C° 0 mm 2 mps 729 mmHg 59%

    23 July, Monday

    Time Temperature Precipitation Wind Pressure Humidity
    00:00 +29°C° 0 mm 2 mps 729 mmHg 62%
    01:00 +28°C° 0 mm 3 mps 729 mmHg 65%
    02:00 +28°C° 0 mm 2 mps 729 mmHg 66%
    03:00 +27°C° 0 mm 2 mps 729 mmHg 67%
    04:00 +27°C° 0 mm 2 mps 728 mmHg 68%
    05:00 +27°C° 0 mm 3 mps 729 mmHg 66%
    06:00 +27°C° 0 mm 3 mps 730 mmHg 65%
    07:00 +27°C° 0 mm 3 mps 730 mmHg 64%
    08:00 +29°C° 0 mm 3 mps 731 mmHg 57%
    09:00 +31°C° 0 mm 3 mps 731 mmHg 49%
    10:00 +33°C° 0 mm 3 mps 731 mmHg 42%
    11:00 +35°C° 0 mm 3 mps 730 mmHg 38%
    12:00 +36°C° 0 mm 3 mps 729 mmHg 34%
    13:00 +38°C° 0 mm 2 mps 729 mmHg 30%
    14:00 +38°C° 0 mm 2 mps 728 mmHg 28%
    15:00 +38°C° 0 mm 2 mps 727 mmHg 27%
    16:00 +38°C° 0 mm 2 mps 727 mmHg 25%
    17:00 +36°C° 0 mm 1 mps 727 mmHg 28%
    18:00 +34°C° 0 mm 1 mps 728 mmHg 32%
    19:00 +32°C° 0 mm 1 mps 728 mmHg 35%
    20:00 +32°C° 0 mm 1 mps 729 mmHg 38%
    21:00 +32°C° 0 mm 1 mps 729 mmHg 40%
    22:00 +31°C° 0 mm 2 mps 729 mmHg 43%
    23:00 +31°C° 0 mm 2 mps 729 mmHg 46%

    24 July, Tuesday

    Time Temperature Precipitation Wind Pressure Humidity
    00:00 +30°C° 0 mm 2 mps 729 mmHg 48%
    01:00 +29°C° 0 mm 2 mps 728 mmHg 51%
    02:00 +29°C° 0 mm 2 mps 728 mmHg 53%
    03:00 +28°C° 0 mm 2 mps 728 mmHg 55%
    04:00 +27°C° 0 mm 2 mps 728 mmHg 57%
    05:00 +27°C° 0 mm 2 mps 729 mmHg 57%
    06:00 +27°C° 0 mm 2 mps 729 mmHg 57%
    07:00 +27°C° 0 mm 2 mps 730 mmHg 57%
    08:00 +29°C° 0 mm 2 mps 730 mmHg 51%
    09:00 +31°C° 0 mm 3 mps 730 mmHg 45%
    10:00 +33°C° 0 mm 3 mps 731 mmHg 38%
    11:00 +35°C° 0 mm 3 mps 730 mmHg 35%
    12:00 +36°C° 0 mm 3 mps 729 mmHg 32%
    13:00 +38°C° 0 mm 3 mps 728 mmHg 29%
    14:00 +38°C° 0 mm 2 mps 728 mmHg 28%
    15:00 +38°C° 0 mm 2 mps 727 mmHg 27%
    16:00 +38°C° 0 mm 2 mps 727 mmHg 26%
    17:00 +36°C° 0 mm 2 mps 727 mmHg 29%
    18:00 +35°C° 0 mm 2 mps 728 mmHg 32%
    19:00 +32°C° 0 mm 1 mps 728 mmHg 35%
    20:00 +32°C° 0 mm 2 mps 729 mmHg 38%
    21:00 +31°C° 0 mm 2 mps 729 mmHg 40%
    22:00 +30°C° 0 mm 2 mps 729 mmHg 43%
    23:00 +30°C° 0 mm 2 mps 729 mmHg 45%
    Show more